Volver al catálogo

STARLINK-35381

ActivoComunicacionesVLEO
NORAD 65826·PAYLOAD·🇺🇸 United States

Lanzado Sep 29, 2025 desde Vandenberg Space Force Base

Loading…

Próximos Pases (próximas 24 horas)

TLE

ActualizadoSource: CelesTrak SupGP

Época: Sep 14, 2026, 21:17 UTC

1 65826C 25221D   26257.88729167  .00036129  00000+0  10669-2 0  2570
2 65826  53.1573 285.8896 0001361  93.9503 204.3532 15.34387556    16

Sigue STARLINK-35381 en tiempo real con AllMySat

Download on the App Store